Regional Weather Roundup
Issued by NWS

Home | Current Version | Previous Version | Graphics & Text | Print | Product List | Glossary On
Versions: 1 2 3 4 5 6 7 8 9 10 11 12 13 14 15 16 17 18 19 20 21 22 23 24 25 26 27 28 29 30 31 32 33 34 35 36 37 38 39 40 41 42 43 44 45 46 47 48 49 50
000
ASUS45 KBOI 301010
RWRID
WEATHER ROUNDUP FOR IDAHO
NATIONAL WEATHER SERVICE BOISE ID
400 AM MDT WED JUL 30 2014

NOTE: "FAIR" INDICATES FEW OR NO CLOUDS BELOW 12000 FEET
WITH NO SIGNIFICANT WEATHER AND/OR OBSTRUCTIONS TO VISIBILITY

IDZ012-014-301100-
SOUTHWEST IDAHO


CITY           SKY/WX    TMP DP  RH WIND       PRES   REMARKS
BOISE          PTCLDY    77  51  40 E9        30.10F
CALDWELL       PTCLDY    68  48  49 E6        30.11S
MOUNTAIN HOME  CLOUDY    68  56  67 NE8       30.11F
$$

IDZ016-017-301100-
SOUTHCENTRAL IDAHO


CITY           SKY/WX    TMP DP  RH WIND       PRES   REMARKS
BURLEY         PTCLDY    59  53  80 CALM      30.19R
JEROME         MOCLDY    60  55  83 CALM      30.19S
TWIN FALLS     MOCLDY    62  53  72 S5        30.20F
$$

IDZ019>023-301100-
SOUTHEAST IDAHO


CITY           SKY/WX    TMP DP  RH WIND       PRES   REMARKS
IDAHO FALLS    CLOUDY    59  54  83 N3        30.23S
POCATELLO      CLEAR     59  55  87 SE5       30.21F
REXBURG        CLOUDY    59  52  77 NE3       30.24S
$$

IDZ006-010-011-018-031-032-301100-
CENTRAL IDAHO MOUNTAINS


CITY           SKY/WX    TMP DP  RH WIND       PRES   REMARKS
MCCALL         CLEAR     56  40  55 NE5       30.25S
HAILEY         CLOUDY    61  54  77 W7        30.27S
STANLEY          N/A     52  44  74 CALM      30.35F
SALMON         PTCLDY    57  48  72 SE3       30.21S
CHALLIS        MOCLDY    60  46  59 NW3       30.25F
$$

IDZ002-004-006-007-026-301100-
NORTHERN IDAHO


CITY           SKY/WX    TMP DP  RH WIND       PRES   REMARKS
LEWISTON       PTCLDY    76  35  22 CALM      29.98S
LOWELL           N/A     62  56  80 CALM      30.06R
COEUR D`ALENE  PTCLDY    61  50  67 E3        30.03S
MULLAN PASS    CLEAR     69  35  28 SE6       30.28F
$$



USA.gov is the U.S. government's official web portal to all federal, state and local government web resources and services.